Tracking 30287 objects as of 18-Apr-2025
HD Live streaming from Space Station
objects crossing your sky now

IRIDIUM 33 DEB

Track IRIDIUM 33 DEB now!
10-day predictions


NORAD ID: 35846
Int'l Code: 1997-051SW
Perigee: 747.5 km
Apogee: 770.2 km
Inclination: 86.4 °
Period: 99.9 minutes
Semi major axis: 7129 km
RCS: 0.0007 m2 (small)
Launch date: September 14, 1997
Source: United States (US)
Launch site: TYURATAM MISSILE AND SPACE COMPLEX (TTMTR)

Note: This is SATELLITE DEBRIS
Your satellite tracking list
Your tracking list is empty




NASA's NSSDC Master Catalog

Two Line Element Set (TLE):
1 35846U 97051SW  25105.57966299  .00002823  00000-0  85307-3 0  9995
2 35846  86.3789 161.6178 0015865 247.9226 112.0290 14.42056615822580
Source of the keplerian elements: AFSPC